DW4725 Weather Reports


Display with metric or nautical units.
time (UTC)temp
F
wind
direction
speed
MPH
gust
MPH
rain 1hr
in
rain 24hr
in
rain mn
in
humidity
%
barometer
mb
20260906203218 68 103 1.0 5.0 0.00 0.00 0.00 72 1024.6
20260906203011 68 84 1.0 5.0 0.00 0.00 0.00 72 1024.6
20260906202812 68 91 2.0 5.0 0.00 0.00 0.00 72 1024.6
20260906202602 68 98 2.0 5.0 0.00 0.00 0.00 72 1024.6
20260906202356 69 101 2.0 5.0 0.00 0.00 0.00 72 1024.7
20260906202156 69 109 2.0 5.0 0.00 0.00 0.00 72 1024.7
20260906201630 69 107 1.0 4.0 0.00 0.00 0.00 72 1024.6
20260906201425 69 115 1.0 3.0 0.00 0.00 0.00 72 1024.7
20260906201224 69 120 1.0 2.0 0.00 0.00 0.00 72 1024.7
20260906201022 69 102 0.0 2.0 0.00 0.00 0.00 72 1024.7
20260906200813 69 110 0.0 1.0 0.00 0.00 0.00 72 1024.7
20260906200244 69 97 0.0 0.0 0.00 0.00 0.00 73 1024.6
20260906200036 69 97 0.0 0.0 0.00 0.00 0.00 73 1024.6
20260906195830 69 97 0.0 0.0 0.00 0.00 0.00 73 1024.7
20260906195623 69 97 0.0 0.0 0.00 0.00 0.00 74 1024.7
20260906195418 69 97 0.0 0.0 0.00 0.00 0.00 74 1024.7
20260906195213 68 97 0.0 0.0 0.00 0.00 0.00 75 1024.8
20260906195009 68 97 0.0 0.0 0.00 0.00 0.00 75 1024.7
20260906194446 68 97 0.0 0.0 0.00 0.00 0.00 76 1024.7
20260906194242 68 97 0.0 0.0 0.00 0.00 0.00 75 1024.6
20260906194037 68 97 0.0 0.0 0.00 0.00 0.00 75 1024.7
20260906193827 68 97 0.0 0.0 0.00 0.00 0.00 75 1024.7
20260906193628 69 97 0.0 0.0 0.00 0.00 0.00 75 1024.7
20260906193423 69 97 0.0 0.0 0.00 0.00 0.00 75 1024.6
20260906193217 69 97 0.0 0.0 0.00 0.00 0.00 75 1024.6
20260906193009 69 97 0.0 0.0 0.00 0.00 0.00 76 1024.5
20260906192808 69 97 0.0 0.0 0.00 0.00 0.00 76 1024.6
20260906192255 69 97 0.0 0.0 0.00 0.00 0.00 76 1024.6
20260906192046 69 97 0.0 0.0 0.00 0.00 0.00 76 1024.6
20260906191847 69 97 0.0 0.0 0.00 0.00 0.00 76 1024.6
20260906191647 69 97 0.0 0.0 0.00 0.00 0.00 76 1024.7
20260906191129 70 97 0.0 0.0 0.00 0.00 0.00 75 1024.5
20260906190610 70 97 0.0 0.0 0.00 0.00 0.00 75 1024.6
20260906185732 70 97 0.0 0.0 0.00 0.00 0.00 74 1024.6
20260906185526 70 97 0.0 0.0 0.00 0.00 0.00 74 1024.6
20260906185320 70 97 0.0 0.0 0.00 0.00 0.00 74 1024.6
20260906185119 70 97 0.0 0.0 0.00 0.00 0.00 74 1024.6
20260906184913 70 97 0.0 0.0 0.00 0.00 0.00 74 1024.6
20260906184704 71 97 0.0 0.0 0.00 0.00 0.00 74 1024.6
20260906184500 71 97 0.0 0.0 0.00 0.00 0.00 74 1024.5
20260906184300 71 97 0.0 0.0 0.00 0.00 0.00 74 1024.5
20260906184058 71 97 0.0 0.0 0.00 0.00 0.00 73 1024.5
20260906183849 71 97 0.0 1.0 0.00 0.00 0.00 73 1024.5
20260906183007 71 243 0.0 0.0 0.00 0.00 0.00 72 1024.3
20260906182448 71 243 0.0 0.0 0.00 0.00 0.00 70 1024.4
20260906182242 71 243 0.0 0.0 0.00 0.00 0.00 70 1024.4
20260906182039 72 243 0.0 0.0 0.00 0.00 0.00 70 1024.5
20260906181834 72 243 0.0 0.0 0.00 0.00 0.00 68 1024.5
20260906181626 72 243 0.0 0.0 0.00 0.00 0.00 68 1024.5
20260906181423 72 243 0.0 0.0 0.00 0.00 0.00 68 1024.4
20260906181219 72 243 0.0 0.0 0.00 0.00 0.00 67 1024.4
20260906181013 72 243 0.0 0.0 0.00 0.00 0.00 66 1024.3
20260906180809 73 243 0.0 0.0 0.00 0.00 0.00 64 1024.3
20260906180608 73 243 0.0 0.0 0.00 0.00 0.00 62 1024.4
20260906180405 73 243 0.0 0.0 0.00 0.00 0.00 61 1024.3
20260906180200 73 243 0.0 0.0 0.00 0.00 0.00 60 1024.4
20260906175958 73 243 0.0 0.0 0.00 0.00 0.00 59 1024.3
20260906175758 74 243 0.0 0.0 0.00 0.00 0.00 57 1024.3
20260906175556 74 227 0.0 0.0 0.00 0.00 0.00 56 1024.3
20260906175346 74 226 0.0 0.0 0.00 0.00 0.00 55 1024.3
20260906175139 74 226 0.0 0.0 0.00 0.00 0.00 55 1024.2
20260906174932 74 226 0.0 0.0 0.00 0.00 0.00 54 1024.3
20260906174723 75 226 0.0 0.0 0.00 0.00 0.00 54 1024.3
20260906174520 75 226 0.0 0.0 0.00 0.00 0.00 54 1024.2
20260906174311 75 226 0.0 0.0 0.00 0.00 0.00 53 1024.2
20260906174108 75 226 0.0 0.0 0.00 0.00 0.00 53 1024.2
20260906173906 75 226 0.0 0.0 0.00 0.00 0.00 53 1024.2
20260906173704 76 226 0.0 0.0 0.00 0.00 0.00 52 1024.2
20260906173454 76 226 0.0 0.0 0.00 0.00 0.00 51 1024.2
20260906173245 76 226 0.0 0.0 0.00 0.00 0.00 50 1024.2
20260906173037 76 226 0.0 0.0 0.00 0.00 0.00 50 1024.2
20260906172830 76 226 0.0 0.0 0.00 0.00 0.00 50 1024.1
20260906171943 76 226 0.0 0.0 0.00 0.00 0.00 47 1024.1
20260906171736 76 226 0.0 0.0 0.00 0.00 0.00 47 1024.1
20260906171535 76 226 0.0 0.0 0.00 0.00 0.00 46 1024.1
20260906170329 77 239 0.0 1.0 0.00 0.00 0.00 49 1024.2
20260906165800 77 229 0.0 1.0 0.00 0.00 0.00 54 1024.2
20260906165558 78 235 0.0 0.0 0.00 0.00 0.00 55 1024.2
20260906165352 78 235 0.0 0.0 0.00 0.00 0.00 56 1024.2
20260906165151 78 235 0.0 1.0 0.00 0.00 0.00 54 1024.2
20260906164944 78 235 0.0 1.0 0.00 0.00 0.00 53 1024.2
20260906164742 78 238 0.0 1.0 0.00 0.00 0.00 52 1024.2
20260906164534 79 224 0.0 1.0 0.00 0.00 0.00 53 1024.1
20260906164334 79 232 0.0 0.0 0.00 0.00 0.00 53 1024.1
20260906164126 79 232 0.0 3.0 0.00 0.00 0.00 53 1024.1
20260906163927 79 233 0.0 3.0 0.00 0.00 0.00 53 1024.1
20260906163727 80 231 0.0 0.0 0.00 0.00 0.00 54 1024.1
20260906163517 80 232 0.0 0.0 0.00 0.00 0.00 53 1024.1
20260906163313 80 232 0.0 2.0 0.00 0.00 0.00 53 1024.1
20260906163114 80 214 0.0 2.0 0.00 0.00 0.00 55 1024.1
20260906162915 79 232 0.0 3.0 0.00 0.00 0.00 57 1024.2
20260906161717 80 248 0.0 3.0 0.00 0.00 0.00 56 1024.2
20260906161514 80 238 0.0 3.0 0.00 0.00 0.00 58 1024.2
20260906161308 81 241 0.0 3.0 0.00 0.00 0.00 59 1024.2
20260906161103 81 238 0.0 3.0 0.00 0.00 0.00 53 1024.2
20260906160900 81 240 0.0 0.0 0.00 0.00 0.00 56 1024.2
20260906160655 81 238 0.0 0.0 0.00 0.00 0.00 54 1024.3
20260906160454 80 238 0.0 0.0 0.00 0.00 0.00 55 1024.2
20260906160244 80 238 0.0 0.0 0.00 0.00 0.00 53 1024.3
20260906160043 80 238 0.0 3.0 0.00 0.00 0.00 57 1024.3
20260906155844 80 238 0.0 3.0 0.00 0.00 0.00 55 1024.3
20260906155639 81 241 0.0 2.0 0.00 0.00 0.00 57 1024.3
20260906155438 81 237 0.0 2.0 0.00 0.00 0.00 55 1024.4
20260906155234 81 106 0.0 0.0 0.00 0.00 0.00 54 1024.4
20260906155024 81 106 0.0 0.0 0.00 0.00 0.00 54 1024.3
20260906154502 80 105 0.0 3.0 0.00 0.00 0.00 54 1024.3
20260906154303 80 253 0.0 3.0 0.00 0.00 0.00 56 1024.3
20260906154055 80 235 0.0 3.0 0.00 0.00 0.00 59 1024.3
20260906153855 81 284 0.0 3.0 0.00 0.00 0.00 54 1024.3
20260906153647 81 236 0.0 1.0 0.00 0.00 0.00 56 1024.3
20260906153445 80 227 0.0 1.0 0.00 0.00 0.00 56 1024.4
20260906153244 80 287 0.0 0.0 0.00 0.00 0.00 56 1024.4
20260906153042 80 287 0.0 2.0 0.00 0.00 0.00 56 1024.5
20260906152835 80 286 0.0 2.0 0.00 0.00 0.00 58 1024.6
20260906152636 80 295 0.0 2.0 0.00 0.00 0.00 58 1024.4
20260906152428 80 263 0.0 1.0 0.00 0.00 0.00 55 1024.5
20260906152226 80 290 0.0 2.0 0.00 0.00 0.00 57 1024.5
20260906152018 80 311 0.0 2.0 0.00 0.00 0.00 57 1024.5
20260906151818 80 291 0.0 1.0 0.00 0.00 0.00 58 1024.4
20260906151614 79 34 0.0 0.0 0.00 0.00 0.00 62 1024.5
20260906151414 79 34 0.0 3.0 0.00 0.00 0.00 61 1024.5
20260906151212 79 34 0.0 2.0 0.00 0.00 0.00 62 1024.5
20260906151011 79 34 0.0 2.0 0.00 0.00 0.00 61 1024.5
20260906150447 79 55 0.0 2.0 0.00 0.00 0.00 61 1024.6
20260906150241 79 56 0.0 1.0 0.00 0.00 0.00 59 1024.5
20260906145726 78 243 0.0 1.0 0.00 0.00 0.00 59 1024.5
20260906145518 78 272 0.0 1.0 0.00 0.00 0.00 59 1024.5
20260906145317 78 237 0.0 0.0 0.00 0.00 0.00 63 1024.5
20260906145111 78 253 0.0 3.0 0.00 0.00 0.00 65 1024.5
20260906144903 78 311 0.0 3.0 0.00 0.00 0.00 64 1024.6
20260906144659 78 256 0.0 2.0 0.00 0.00 0.00 65 1024.6
20260906144453 78 297 0.0 2.0 0.00 0.00 0.00 65 1024.6
20260906144249 78 285 0.0 2.0 0.00 0.00 0.00 65 1024.6
20260906144043 78 304 0.0 3.0 0.00 0.00 0.00 65 1024.6
20260906143525 78 243 0.0 3.0 0.00 0.00 0.00 65 1024.6
20260906143317 78 254 0.0 3.0 0.00 0.00 0.00 66 1024.6
20260906143107 78 253 0.0 3.0 0.00 0.00 0.00 64 1024.7
20260906142859 78 257 0.0 0.0 0.00 0.00 0.00 66 1024.7
20260906142656 77 257 0.0 0.0 0.00 0.00 0.00 66 1024.6
20260906142451 77 257 0.0 0.0 0.00 0.00 0.00 66 1024.7
20260906142246 77 265 0.0 3.0 0.00 0.00 0.00 65 1024.7
20260906141405 78 282 0.0 0.0 0.00 0.00 0.00 65 1024.6
20260906141205 78 226 0.0 0.0 0.00 0.00 0.00 66 1024.6
20260906140634 78 212 0.0 2.0 0.00 0.00 0.00 67 1024.5
20260906140429 77 319 0.0 0.0 0.00 0.00 0.00 66 1024.5
20260906140219 78 335 0.0 4.0 0.00 0.00 0.00 66 1024.6
20260906140020 77 240 0.0 3.0 0.00 0.00 0.00 67 1024.6
20260906135811 77 274 0.0 3.0 0.00 0.00 0.00 65 1024.5
20260906135602 78 286 0.0 3.0 0.00 0.00 0.00 66 1024.5
20260906135401 78 275 0.0 3.0 0.00 0.00 0.00 66 1024.6
20260906135151 78 48 0.0 3.0 0.00 0.00 0.00 67 1024.6
20260906134946 77 80 0.0 2.0 0.00 0.00 0.00 68 1024.5
20260906134740 77 68 0.0 2.0 0.00 0.00 0.00 67 1024.7
20260906134529 77 248 0.0 1.0 0.00 0.00 0.00 67 1024.6
20260906134326 77 304 0.0 0.0 0.00 0.00 0.00 66 1024.6
20260906134122 77 304 0.0 3.0 0.00 0.00 0.00 66 1024.7
20260906133922 77 290 0.0 3.0 0.00 0.00 0.00 65 1024.7
20260906133356 76 41 0.0 4.0 0.00 0.00 0.00 68 1024.8
20260906133155 76 44 0.0 4.0 0.00 0.00 0.00 66 1024.7
20260906132945 77 47 0.0 4.0 0.00 0.00 0.00 65 1024.7
20260906132423 77 52 0.0 3.0 0.00 0.00 0.00 66 1024.7
20260906132217 77 280 0.0 6.0 0.00 0.00 0.00 65 1024.7
20260906132017 77 244 0.0 6.0 0.00 0.00 0.00 67 1024.8
20260906131813 77 276 0.0 6.0 0.00 0.00 0.00 66 1024.9
20260906131613 76 60 0.0 6.0 0.00 0.00 0.00 66 1024.9
20260906131411 76 46 0.0 6.0 0.00 0.00 0.00 66 1024.9
20260906130848 76 290 0.0 2.0 0.00 0.00 0.00 69 1024.9
20260906130643 76 120 0.0 2.0 0.00 0.00 0.00 69 1024.9
20260906130118 75 15 0.0 6.0 0.00 0.00 0.00 69 1025.0
20260906125917 75 294 0.0 6.0 0.00 0.00 0.00 69 1025.1
20260906125707 75 291 0.0 6.0 0.00 0.00 0.00 67 1025.1
20260906125456 76 305 0.0 2.0 0.00 0.00 0.00 69 1025.0
20260906124927 75 53 0.0 0.0 0.00 0.00 0.00 68 1025.0
20260906124727 75 53 0.0 4.0 0.00 0.00 0.00 68 1025.0
20260906124525 75 41 0.0 4.0 0.00 0.00 0.00 69 1025.1
20260906124321 76 290 0.0 2.0 0.00 0.00 0.00 69 1025.1
20260906123805 75 292 0.0 0.0 0.00 0.00 0.00 69 1025.1
20260906123600 75 49 0.0 5.0 0.00 0.00 0.00 69 1025.1
20260906123350 75 89 1.0 5.0 0.00 0.00 0.00 69 1025.2
20260906123151 75 38 1.0 5.0 0.00 0.00 0.00 69 1025.1
20260906122947 75 276 1.0 5.0 0.00 0.00 0.00 70 1025.1
20260906122745 75 181 0.0 5.0 0.00 0.00 0.00 70 1025.2
20260906122534 75 39 1.0 5.0 0.00 0.00 0.00 70 1025.2
20260906122325 75 49 0.0 5.0 0.00 0.00 0.00 69 1025.1
20260906122120 75 70 0.0 4.0 0.00 0.00 0.00 72 1025.2
20260906121918 75 39 0.0 4.0 0.00 0.00 0.00 72 1025.2
20260906121714 75 4 0.0 4.0 0.00 0.00 0.00 71 1025.1
20260906121504 75 276 0.0 4.0 0.00 0.00 0.00 72 1025.3
20260906121305 75 255 0.0 4.0 0.00 0.00 0.00 72 1025.2
20260906121102 75 288 0.0 4.0 0.00 0.00 0.00 72 1025.3
20260906120855 75 240 0.0 4.0 0.00 0.00 0.00 72 1025.2
20260906120646 74 37 0.0 3.0 0.00 0.00 0.00 73 1025.3
20260906120134 74 290 0.0 5.0 0.00 0.00 0.00 72 1025.4
20260906115929 74 236 1.0 5.0 0.00 0.00 0.00 72 1025.2
20260906115729 74 275 0.0 5.0 0.00 0.00 0.00 72 1025.3
20260906115520 74 297 0.0 5.0 0.00 0.00 0.00 72 1025.3
20260906115006 74 45 0.0 3.0 0.00 0.00 0.00 73 1025.4
20260906114803 74 283 0.0 3.0 0.00 0.00 0.00 72 1025.5
20260906114554 74 51 0.0 3.0 0.00 0.00 0.00 73 1025.6
20260906114033 73 259 0.0 3.0 0.00 0.00 0.00 73 1025.8
20260906113513 74 293 0.0 2.0 0.00 0.00 0.00 73 1025.7
20260906113312 74 169 0.0 3.0 0.00 0.00 0.00 75 1025.6
20260906113109 73 114 0.0 3.0 0.00 0.00 0.00 74 1025.7
20260906112908 73 99 0.0 3.0 0.00 0.00 0.00 75 1025.6
20260906112704 73 224 0.0 3.0 0.00 0.00 0.00 74 1025.6
20260906112454 73 259 0.0 3.0 0.00 0.00 0.00 74 1025.7
20260906111934 72 259 0.0 3.0 0.00 0.00 0.00 77 1025.7
20260906111725 72 295 0.0 3.0 0.00 0.00 0.00 76 1025.6
20260906111526 72 283 1.0 3.0 0.00 0.00 0.00 76 1025.6
20260906111321 72 55 0.0 3.0 0.00 0.00 0.00 76 1025.6
20260906111112 72 284 0.0 3.0 0.00 0.00 0.00 76 1025.6
20260906110905 72 304 0.0 3.0 0.00 0.00 0.00 76 1025.6
20260906110657 72 289 0.0 3.0 0.00 0.00 0.00 76 1025.6
20260906110454 72 283 0.0 3.0 0.00 0.00 0.00 77 1025.6
20260906110244 72 285 0.0 2.0 0.00 0.00 0.00 76 1025.6
20260906110042 72 259 0.0 2.0 0.00 0.00 0.00 76 1025.6
20260906105833 72 255 0.0 2.0 0.00 0.00 0.00 78 1025.6
20260906105623 71 231 0.0 2.0 0.00 0.00 0.00 77 1025.6
20260906105423 71 285 0.0 2.0 0.00 0.00 0.00 76 1025.6
20260906105213 72 268 0.0 3.0 0.00 0.00 0.00 76 1025.7
20260906104642 71 283 0.0 2.0 0.00 0.00 0.00 79 1025.6
20260906104443 71 279 0.0 0.0 0.00 0.00 0.00 79 1025.6
20260906103556 71 277 0.0 3.0 0.00 0.00 0.00 78 1025.7
20260906103355 71 46 0.0 3.0 0.00 0.00 0.00 79 1025.7
20260906103147 71 212 0.0 3.0 0.00 0.00 0.00 80 1025.7
20260906102948 70 205 0.0 3.0 0.00 0.00 0.00 80 1025.8
20260906102741 70 43 0.0 3.0 0.00 0.00 0.00 81 1025.8
20260906102535 70 289 0.0 3.0 0.00 0.00 0.00 78 1025.8
20260906102326 70 47 0.0 3.0 0.00 0.00 0.00 79 1025.8
20260906102120 70 53 0.0 3.0 0.00 0.00 0.00 79 1025.8
20260906101915 70 295 0.0 3.0 0.00 0.00 0.00 81 1025.8
20260906101712 70 299 0.0 3.0 0.00 0.00 0.00 79 1025.9
20260906101503 70 304 0.0 3.0 0.00 0.00 0.00 79 1025.9
20260906101257 70 285 0.0 3.0 0.00 0.00 0.00 79 1025.9
20260906101050 70 269 0.0 3.0 0.00 0.00 0.00 79 1026.0
20260906100847 70 288 0.0 3.0 0.00 0.00 0.00 79 1026.0
20260906100641 70 285 0.0 4.0 0.00 0.00 0.00 79 1026.0
20260906100436 70 253 0.0 4.0 0.00 0.00 0.00 80 1026.1
20260906100232 70 57 0.0 4.0 0.00 0.00 0.00 81 1026.0
20260906100032 69 47 0.0 4.0 0.00 0.00 0.00 82 1026.1
20260906095830 69 186 0.0 4.0 0.00 0.00 0.00 82 1026.0
20260906095623 69 254 0.0 5.0 0.00 0.00 0.00 82 1026.1
20260906095417 69 278 0.0 5.0 0.00 0.00 0.00 83 1026.1
20260906095216 68 271 0.0 5.0 0.00 0.00 0.00 83 1026.1
20260906095014 68 300 0.0 5.0 0.00 0.00 0.00 82 1026.1
20260906094812 68 274 0.0 5.0 0.00 0.00 0.00 83 1026.1
20260906094613 68 271 1.0 5.0 0.00 0.00 0.00 82 1026.1
20260906094414 68 268 1.0 5.0 0.00 0.00 0.00 83 1026.3
20260906094205 68 272 1.0 5.0 0.00 0.00 0.00 83 1026.2
20260906094002 68 302 1.0 5.0 0.00 0.00 0.00 80 1026.2
20260906093759 68 281 0.0 5.0 0.00 0.00 0.00 81 1026.2
20260906093559 69 280 0.0 3.0 0.00 0.00 0.00 81 1026.2
20260906093358 68 282 0.0 3.0 0.00 0.00 0.00 82 1026.2
20260906093151 68 291 0.0 3.0 0.00 0.00 0.00 82 1026.2
20260906092947 68 269 0.0 3.0 0.00 0.00 0.00 82 1026.2
20260906092745 68 279 0.0 3.0 0.00 0.00 0.00 80 1026.2
20260906091851 67 212 0.0 2.0 0.00 0.00 0.00 83 1026.1
20260906091647 67 290 0.0 2.0 0.00 0.00 0.00 82 1026.2
20260906091439 67 297 0.0 2.0 0.00 0.00 0.00 82 1026.1
20260906091235 67 286 0.0 0.0 0.00 0.00 0.00 84 1026.2
20260906091032 67 271 0.0 2.0 0.00 0.00 0.00 83 1026.1
20260906090826 67 238 0.0 2.0 0.00 0.00 0.00 82 1026.1
20260906090621 67 289 0.0 2.0 0.00 0.00 0.00 82 1026.2
20260906090420 67 302 0.0 2.0 0.00 0.00 0.00 83 1026.2
20260906090220 67 230 0.0 2.0 0.00 0.00 0.00 83 1026.1
20260906090017 67 283 0.0 1.0 0.00 0.00 0.00 82 1026.1
20260906085810 67 290 0.0 2.0 0.00 0.00 0.00 82 1026.1
20260906085604 67 291 0.0 2.0 0.00 0.00 0.00 82 1026.1
20260906085400 66 265 0.0 3.0 0.00 0.00 0.00 84 1026.1
20260906084845 65 274 0.0 3.0 0.00 0.00 0.00 84 1026.0
20260906084637 65 283 0.0 3.0 0.00 0.00 0.00 84 1026.0
20260906084435 66 279 0.0 3.0 0.00 0.00 0.00 84 1026.0
20260906084233 66 280 0.0 3.0 0.00 0.00 0.00 84 1026.0
20260906084030 66 290 0.0 3.0 0.00 0.00 0.00 85 1026.1
20260906083827 66 262 0.0 3.0 0.00 0.00 0.00 84 1026.1
20260906083624 66 237 0.0 3.0 0.00 0.00 0.00 84 1026.1
20260906083416 66 290 0.0 3.0 0.00 0.00 0.00 84 1026.2
20260906082859 67 279 0.0 3.0 0.00 0.00 0.00 82 1026.1
20260906082343 67 307 0.0 1.0 0.00 0.00 0.00 83 1026.1
20260906081819 66 39 0.0 1.0 0.00 0.00 0.00 84 1025.9
20260906081615 66 263 0.0 0.0 0.00 0.00 0.00 84 1025.9
20260906081409 66 269 0.0 0.0 0.00 0.00 0.00 85 1025.9
20260906081159 65 269 0.0 0.0 0.00 0.00 0.00 85 1025.9
20260906080324 66 287 0.0 2.0 0.00 0.00 0.00 82 1025.9
20260906080114 66 60 0.0 2.0 0.00 0.00 0.00 83 1025.9
20260906075912 66 7 0.0 2.0 0.00 0.00 0.00 84 1025.9
20260906075706 65 18 0.0 2.0 0.00 0.00 0.00 85 1025.9
20260906075505 65 8 0.0 2.0 0.00 0.00 0.00 85 1025.9
20260906075255 65 46 0.0 2.0 0.00 0.00 0.00 84 1025.9
20260906075054 65 75 0.0 1.0 0.00 0.00 0.00 85 1025.9
20260906074202 65 287 0.0 0.0 0.00 0.00 0.00 83 1025.9
20260906073959 65 287 0.0 2.0 0.00 0.00 0.00 83 1025.9
20260906073750 65 287 0.0 2.0 0.00 0.00 0.00 81 1025.9
20260906073547 66 286 0.0 2.0 0.00 0.00 0.00 81 1025.9
20260906073341 66 281 0.0 1.0 0.00 0.00 0.00 82 1025.9
20260906073141 66 101 0.0 0.0 0.00 0.00 0.00 83 1026.0
20260906072936 66 103 0.0 0.0 0.00 0.00 0.00 82 1025.9
20260906072735 65 42 0.0 2.0 0.00 0.00 0.00 82 1025.9
20260906072527 65 240 0.0 0.0 0.00 0.00 0.00 82 1025.9
20260906071651 65 44 0.0 3.0 0.00 0.00 0.00 82 1025.9
20260906071134 65 41 0.0 3.0 0.00 0.00 0.00 81 1025.8
20260906070931 64 78 0.0 3.0 0.00 0.00 0.00 82 1025.9
20260906070038 64 110 1.0 3.0 0.00 0.00 0.00 84 1025.8
20260906065519 63 114 0.0 2.0 0.00 0.00 0.00 82 1025.8
20260906065315 64 115 0.0 2.0 0.00 0.00 0.00 83 1025.8
20260906065106 63 110 0.0 2.0 0.00 0.00 0.00 84 1025.8
20260906064856 63 102 0.0 2.0 0.00 0.00 0.00 84 1025.9
20260906064326 63 71 0.0 2.0 0.00 0.00 0.00 83 1025.8
20260906064120 63 75 0.0 2.0 0.00 0.00 0.00 84 1025.7
20260906063910 63 74 0.0 2.0 0.00 0.00 0.00 84 1025.8
20260906063706 63 84 0.0 2.0 0.00 0.00 0.00 84 1025.8
20260906063500 63 70 0.0 2.0 0.00 0.00 0.00 84 1025.8
20260906062932 63 64 0.0 1.0 0.00 0.00 0.00 83 1025.8
20260906062403 63 98 0.0 0.0 0.00 0.00 0.00 84 1025.8
20260906061849 62 117 0.0 2.0 0.00 0.00 0.00 85 1025.8
20260906061647 62 114 0.0 3.0 0.00 0.00 0.00 86 1025.8
20260906061441 62 118 0.0 3.0 0.00 0.00 0.00 86 1025.7
20260906061240 61 113 0.0 3.0 0.00 0.00 0.00 86 1025.8
20260906061030 61 114 1.0 3.0 0.00 0.00 0.00 86 1025.8
20260906060823 61 118 1.0 3.0 0.00 0.00 0.00 86 1025.8
20260906060620 61 110 1.0 3.0 0.00 0.00 0.00 87 1025.8
20260906060421 61 114 1.0 3.0 0.00 0.00 0.00 87 1025.7
20260906055858 61 141 1.0 3.0 0.00 0.00 0.00 87 1025.7
20260906055659 61 125 1.0 2.0 0.00 0.00 0.00 87 1025.7
20260906054806 60 101 0.0 3.0 0.00 0.00 0.00 87 1025.6
20260906054603 60 125 0.0 3.0 0.00 0.00 0.00 87 1025.6
20260906054356 60 115 0.0 3.0 0.00 0.00 0.00 88 1025.6
20260906054153 60 109 1.0 4.0 0.00 0.00 0.00 88 1025.6
20260906053951 60 93 1.0 4.0 0.00 0.00 0.00 88 1025.6
20260906053749 60 91 2.0 4.0 0.00 0.00 0.00 88 1025.6
20260906053550 60 110 2.0 4.0 0.00 0.00 0.00 89 1025.5
20260906053350 59 104 2.0 4.0 0.00 0.00 0.00 89 1025.6
20260906052821 59 117 1.0 4.0 0.00 0.00 0.00 89 1025.5
20260906052614 59 117 1.0 4.0 0.00 0.00 0.00 89 1025.5
20260906052411 59 125 1.0 4.0 0.00 0.00 0.00 89 1025.4
20260906051843 59 101 0.0 3.0 0.00 0.00 0.00 90 1025.4
20260906051640 58 115 0.0 1.0 0.00 0.00 0.00 90 1025.4
20260906051439 58 110 0.0 1.0 0.00 0.00 0.00 90 1025.4
20260906051236 58 108 0.0 1.0 0.00 0.00 0.00 90 1025.3
20260906051031 58 110 0.0 1.0 0.00 0.00 0.00 90 1025.4
20260906050826 58 102 0.0 2.0 0.00 0.00 0.00 90 1025.3
20260906050621 58 117 0.0 2.0 0.00 0.00 0.00 90 1025.4
20260906050411 58 120 0.0 2.0 0.00 0.00 0.00 90 1025.4
20260906045848 58 97 0.0 3.0 0.00 0.00 0.00 90 1025.4
20260906045324 58 96 0.0 3.0 0.00 0.00 0.00 90 1025.4
20260906045118 58 82 0.0 3.0 0.00 0.00 0.00 90 1025.3
20260906044911 58 97 0.0 3.0 0.00 0.00 0.00 90 1025.3
20260906044708 58 115 0.0 3.0 0.00 0.00 0.00 90 1025.3
20260906043511 59 101 0.0 2.0 0.00 0.00 0.00 89 1025.2
20260906042945 59 103 0.0 2.0 0.00 0.00 0.00 90 1025.2
20260906042738 59 72 0.0 2.0 0.00 0.00 0.00 90 1025.3
20260906042531 59 94 0.0 1.0 0.00 0.00 0.00 90 1025.3
20260906042324 59 96 0.0 0.0 0.00 0.00 0.00 90 1025.3
20260906042120 59 101 0.0 1.0 0.00 0.00 0.00 90 1025.2
20260906041917 59 101 0.0 1.0 0.00 0.00 0.00 90 1025.2
20260906041348 59 113 0.0 0.0 0.00 0.00 0.00 91 1025.3
20260906041146 59 113 0.0 0.0 0.00 0.00 0.00 91 1025.3
20260906040941 59 112 0.0 0.0 0.00 0.00 0.00 91 1025.3
20260906040733 59 112 0.0 0.0 0.00 0.00 0.00 91 1025.3
20260906040208 59 112 0.0 0.0 0.00 0.00 0.00 91 1025.3
20260906040008 58 112 0.0 0.0 0.00 0.00 0.00 91 1025.4
20260906035758 58 113 0.0 0.0 0.00 0.00 0.00 91 1025.3
20260906035554 58 111 0.0 0.0 0.00 0.00 0.00 91 1025.3
20260906035350 58 108 0.0 2.0 0.00 0.00 0.00 91 1025.3
20260906035139 58 108 0.0 2.0 0.00 0.00 0.00 91 1025.3
20260906034612 58 116 0.0 2.0 0.00 0.00 0.00 90 1025.3
20260906034402 58 104 0.0 2.0 0.00 0.00 0.00 91 1025.3
20260906034154 58 98 0.0 2.0 0.00 0.00 0.00 91 1025.4
20260906033635 58 96 0.0 2.0 0.00 0.00 0.00 90 1025.3
20260906033425 58 104 0.0 2.0 0.00 0.00 0.00 90 1025.3
20260906033215 58 96 1.0 5.0 0.00 0.00 0.00 90 1025.2
20260906032336 59 103 1.0 5.0 0.00 0.00 0.00 90 1025.2
20260906032137 59 65 1.0 5.0 0.00 0.00 0.00 90 1025.2
20260906031929 59 108 1.0 5.0 0.00 0.00 0.00 90 1025.2
20260906031729 59 115 1.0 5.0 0.00 0.00 0.00 89 1025.1
20260906030840 59 65 1.0 3.0 0.00 0.00 0.00 89 1025.3
20260906030638 59 104 1.0 3.0 0.00 0.00 0.00 89 1025.3
20260906030428 59 79 1.0 3.0 0.00 0.00 0.00 89 1025.3
20260906025908 59 93 0.0 3.0 0.00 0.00 0.00 89 1025.4
20260906025658 59 90 0.0 3.0 0.00 0.00 0.00 90 1025.3
20260906025452 59 94 0.0 3.0 0.00 0.00 0.00 90 1025.3
20260906025253 59 94 0.0 1.0 0.00 0.00 0.00 91 1025.4
20260906025049 59 108 0.0 1.0 0.00 0.00 0.00 91 1025.4
20260906024159 58 112 0.0 1.0 0.00 0.00 0.00 91 1025.4
20260906023959 58 105 0.0 1.0 0.00 0.00 0.00 90 1025.4
20260906023752 59 120 0.0 1.0 0.00 0.00 0.00 90 1025.3
20260906023551 59 109 0.0 2.0 0.00 0.00 0.00 90 1025.4
20260906023349 59 108 0.0 2.0 0.00 0.00 0.00 90 1025.5
20260906023140 59 105 0.0 2.0 0.00 0.00 0.00 90 1025.4
20260906022931 59 88 0.0 2.0 0.00 0.00 0.00 90 1025.4
20260906022725 59 111 0.0 2.0 0.00 0.00 0.00 89 1025.4
20260906022524 59 103 0.0 2.0 0.00 0.00 0.00 89 1025.6
20260906022324 59 106 0.0 2.0 0.00 0.00 0.00 90 1025.5
20260906022125 59 101 0.0 2.0 0.00 0.00 0.00 90 1025.6
20260906021923 59 92 0.0 2.0 0.00 0.00 0.00 90 1025.5
20260906021716 59 97 0.0 1.0 0.00 0.00 0.00 90 1025.6
20260906021508 59 112 0.0 1.0 0.00 0.00 0.00 90 1025.6
20260906021259 59 108 0.0 1.0 0.00 0.00 0.00 89 1025.6
20260906021053 59 106 0.0 1.0 0.00 0.00 0.00 89 1025.6
20260906020845 59 102 0.0 1.0 0.00 0.00 0.00 89 1025.5
20260906020641 59 96 0.0 1.0 0.00 0.00 0.00 89 1025.6
20260906020438 59 96 0.0 1.0 0.00 0.00 0.00 89 1025.7
20260906020235 59 107 0.0 1.0 0.00 0.00 0.00 89 1025.7
20260906015702 60 102 0.0 1.0 0.00 0.00 0.00 89 1025.8
20260906015452 60 108 0.0 3.0 0.00 0.00 0.00 89 1025.7
20260906015242 60 106 0.0 3.0 0.00 0.00 0.00 89 1025.7
20260906015037 60 105 0.0 3.0 0.00 0.00 0.00 88 1025.6
20260906014837 60 106 0.0 3.0 0.00 0.00 0.00 88 1025.6
20260906014635 60 95 0.0 3.0 0.00 0.00 0.00 88 1025.6
20260906014112 60 81 0.0 3.0 0.00 0.00 0.00 88 1025.6
20260906013905 60 76 0.0 3.0 0.00 0.00 0.00 88 1025.6
20260906013019 60 88 0.0 2.0 0.00 0.00 0.00 88 1025.6
20260906012817 60 97 0.0 3.0 0.00 0.00 0.00 88 1025.6
20260906012613 60 89 0.0 3.0 0.00 0.00 0.00 87 1025.6
20260906012412 61 98 1.0 3.0 0.00 0.00 0.00 87 1025.5
20260906011844 61 101 1.0 3.0 0.00 0.00 0.00 87 1025.6
20260906011637 61 96 1.0 3.0 0.00 0.00 0.00 87 1025.6
20260906011436 61 98 0.0 3.0 0.00 0.00 0.00 87 1025.6
20260906011226 61 109 0.0 3.0 0.00 0.00 0.00 87 1025.6
20260906011027 61 98 0.0 3.0 0.00 0.00 0.00 87 1025.6
20260906010147 61 105 0.0 3.0 0.00 0.00 0.00 86 1025.4
20260906005629 62 89 0.0 3.0 0.00 0.00 0.00 86 1025.4
20260906005428 62 74 0.0 3.0 0.00 0.00 0.00 86 1025.5
20260906005225 61 73 0.0 3.0 0.00 0.00 0.00 87 1025.5
20260906005017 61 54 0.0 3.0 0.00 0.00 0.00 87 1025.5
20260906004809 61 82 0.0 2.0 0.00 0.00 0.00 87 1025.6
20260906004601 61 89 0.0 2.0 0.00 0.00 0.00 86 1025.5
20260906004400 61 89 0.0 2.0 0.00 0.00 0.00 86 1025.4
20260906004200 61 105 0.0 2.0 0.00 0.00 0.00 86 1025.5
20260906003951 62 78 0.0 2.0 0.00 0.00 0.00 86 1025.5
20260906003740 62 72 0.0 2.0 0.00 0.00 0.00 86 1025.5
20260906003530 62 71 0.0 2.0 0.00 0.00 0.00 86 1025.6
20260906003328 62 71 0.0 4.0 0.00 0.00 0.00 86 1025.6
20260906003127 62 56 0.0 4.0 0.00 0.00 0.00 86 1025.5
20260906002244 62 77 1.0 4.0 0.00 0.00 0.00 86 1025.6
20260906001357 61 71 0.0 3.0 0.00 0.00 0.00 87 1025.6
20260906001152 61 69 0.0 3.0 0.00 0.00 0.00 87 1025.7
20260906000947 61 107 1.0 3.0 0.00 0.00 0.00 87 1025.6
20260906000106 61 96 1.0 3.0 0.00 0.00 0.00 87 1025.6
20260905235905 61 91 1.0 3.0 0.00 0.00 0.00 87 1025.7
20260905235702 61 103 1.0 3.0 0.00 0.00 0.00 87 1025.8
20260905235454 61 99 1.0 4.0 0.00 0.00 0.00 87 1025.8
20260905235246 61 105 1.0 4.0 0.00 0.00 0.00 87 1025.8
20260905235041 61 117 1.0 4.0 0.00 0.00 0.00 86 1025.8
20260905234832 61 98 1.0 4.0 0.00 0.00 0.00 86 1025.8
20260905234624 61 108 1.0 4.0 0.00 0.00 0.00 86 1025.8
20260905234418 61 114 1.0 4.0 0.00 0.00 0.00 86 1025.8
20260905234212 61 101 1.0 4.0 0.00 0.00 0.00 86 1025.8
20260905234002 62 100 1.0 4.0 0.00 0.00 0.00 85 1025.9
20260905233755 62 101 1.0 4.0 0.00 0.00 0.00 85 1025.9
20260905233547 62 103 1.0 4.0 0.00 0.00 0.00 85 1025.9
20260905233340 62 113 1.0 3.0 0.00 0.00 0.00 85 1025.9
20260905233140 62 96 1.0 3.0 0.00 0.00 0.00 85 1025.9
20260905232941 62 102 1.0 3.0 0.00 0.00 0.00 85 1026.0
20260905232737 62 87 1.0 3.0 0.00 0.00 0.00 86 1026.0
20260905232208 62 106 1.0 3.0 0.00 0.00 0.00 85 1026.0
20260905232001 62 114 1.0 3.0 0.00 0.00 0.00 85 1026.0
20260905231751 62 120 1.0 3.0 0.00 0.00 0.00 85 1026.0
20260905231550 62 94 1.0 3.0 0.00 0.00 0.00 85 1026.1
20260905231342 62 107 1.0 3.0 0.00 0.00 0.00 85 1025.9
20260905231132 62 101 1.0 3.0 0.00 0.00 0.00 85 1026.0
20260905230928 62 87 1.0 3.0 0.00 0.00 0.00 85 1026.0
20260905230726 62 127 1.0 3.0 0.00 0.00 0.00 84 1026.0
20260905230200 62 94 1.0 3.0 0.00 0.00 0.00 84 1026.1
20260905230001 62 107 0.0 3.0 0.00 0.00 0.00 84 1026.0
20260905225801 62 110 0.0 3.0 0.00 0.00 0.00 84 1026.0
20260905225552 62 119 0.0 2.0 0.00 0.00 0.00 84 1026.1
20260905225351 62 90 0.0 2.0 0.00 0.00 0.00 84 1026.1
20260905225152 62 92 0.0 2.0 0.00 0.00 0.00 83 1026.2
20260905224951 62 97 0.0 2.0 0.00 0.00 0.00 83 1026.2
20260905224429 63 95 0.0 2.0 0.00 0.00 0.00 82 1026.2
20260905224224 63 83 0.0 2.0 0.00 0.00 0.00 82 1026.2
20260905224023 63 77 0.0 2.0 0.00 0.00 0.00 82 1026.2
20260905223137 63 62 0.0 2.0 0.00 0.00 0.00 81 1026.1
20260905222933 63 77 0.0 2.0 0.00 0.00 0.00 81 1026.1
20260905222727 63 77 0.0 2.0 0.00 0.00 0.00 81 1026.1
20260905222520 63 77 0.0 2.0 0.00 0.00 0.00 81 1026.1
20260905222317 63 67 0.0 2.0 0.00 0.00 0.00 81 1026.1
20260905222115 64 75 0.0 3.0 0.00 0.00 0.00 81 1026.1
20260905221906 64 67 0.0 3.0 0.00 0.00 0.00 80 1026.0
20260905221705 64 68 0.0 3.0 0.00 0.00 0.00 80 1026.0
20260905221500 64 69 0.0 3.0 0.00 0.00 0.00 80 1026.1
20260905221255 64 44 0.0 3.0 0.00 0.00 0.00 80 1026.1
20260905221045 64 38 0.0 3.0 0.00 0.00 0.00 80 1026.1
20260905220843 64 38 0.0 3.0 0.00 0.00 0.00 80 1026.1
20260905220004 64 66 0.0 2.0 0.00 0.00 0.00 79 1026.1
20260905215757 64 57 0.0 2.0 0.00 0.00 0.00 79 1026.1
20260905215558 64 39 0.0 2.0 0.00 0.00 0.00 79 1026.1
20260905215356 65 69 0.0 1.0 0.00 0.00 0.00 79 1026.1
20260905214842 65 64 0.0 1.0 0.00 0.00 0.00 78 1026.1
20260905214634 65 73 0.0 2.0 0.00 0.00 0.00 78 1026.1
20260905214107 65 72 0.0 2.0 0.00 0.00 0.00 78 1026.2
20260905213906 65 75 0.0 2.0 0.00 0.00 0.00 77 1026.2
20260905213706 65 45 0.0 2.0 0.00 0.00 0.00 78 1026.3
20260905213455 65 56 0.0 2.0 0.00 0.00 0.00 77 1026.3
20260905213249 65 56 0.0 2.0 0.00 0.00 0.00 77 1026.3
20260905213042 65 68 0.0 2.0 0.00 0.00 0.00 77 1026.3
20260905212839 65 70 0.0 2.0 0.00 0.00 0.00 77 1026.3
20260905212638 65 78 0.0 2.0 0.00 0.00 0.00 77 1026.2
20260905212435 65 69 0.0 2.0 0.00 0.00 0.00 77 1026.3
20260905212225 65 43 0.0 2.0 0.00 0.00 0.00 77 1026.3
20260905211339 65 37 0.0 3.0 0.00 0.00 0.00 77 1026.2
20260905211140 65 69 0.0 3.0 0.00 0.00 0.00 77 1026.3
20260905210933 65 71 0.0 5.0 0.00 0.00 0.00 78 1026.3
20260905210730 65 92 0.0 5.0 0.00 0.00 0.00 78 1026.3
20260905210530 65 102 0.0 5.0 0.00 0.00 0.00 78 1026.3
20260905210320 65 71 1.0 5.0 0.00 0.00 0.00 77 1026.2
20260905210111 65 75 1.0 6.0 0.00 0.00 0.00 77 1026.2
20260905205905 65 49 1.0 6.0 0.00 0.00 0.00 77 1026.3
20260905205702 65 60 1.0 6.0 0.00 0.00 0.00 77 1026.2
20260905205453 65 66 1.0 6.0 0.00 0.00 0.00 77 1026.2
20260905205246 65 114 1.0 6.0 0.00 0.00 0.00 77 1026.3
20260905204721 66 49 2.0 6.0 0.00 0.00 0.00 77 1026.4
20260905204153 66 65 1.0 6.0 0.00 0.00 0.00 77 1026.3
20260905203946 65 46 0.0 4.0 0.00 0.00 0.00 78 1026.3
20260905203741 65 75 0.0 3.0 0.00 0.00 0.00 78 1026.4
20260905203531 65 71 0.0 2.0 0.00 0.00 0.00 78 1026.5
20260905203327 65 71 0.0 2.0 0.00 0.00 0.00 78 1026.5